OE7BJT-13 Weather Reports


time (UTC)temp
C
wind
direction
speed
KPH
gust
KPH
rain 1hr
cm
rain 24hr
cm
rain mn
cm
humidity
%
barometer
mb
20260502123027 23 0 0.0 0.0 0.00 0.00 0.00 20 1020.0
20260502122022 25 0 0.0 0.0 0.00 0.00 0.00 21 1020.0
20260502121016 24 0 0.0 0.0 0.00 0.00 0.00 21 1020.0
20260502113959 25 0 0.0 0.0 0.00 0.00 0.00 21 1021.0
20260502111948 23 0 0.0 0.0 0.00 0.00 0.00 23 1021.0
20260502110942 23 0 0.0 0.0 0.00 0.00 0.00 22 1021.0
20260502104931 23 0 0.0 0.0 0.00 0.00 0.00 26 1021.0
20260502103926 23 0 0.0 0.0 0.00 0.00 0.00 27 1022.0
20260502101914 22 0 0.0 0.0 0.00 0.00 0.00 27 1022.0
20260502100909 21 0 0.0 0.0 0.00 0.00 0.00 29 1022.0
20260502090835 20 0 0.0 0.0 0.00 0.00 0.00 33 1023.0
20260502064717 13 0 0.0 0.0 0.00 0.00 0.00 56 1024.0
20260502063711 14 0 0.0 0.0 0.00 0.00 0.00 55 1024.0
20260502062706 10 0 0.0 0.0 0.00 0.00 0.00 70 1024.0
20260502061700 9 0 0.0 0.0 0.00 0.00 0.00 75 1024.0
20260502060655 7 0 0.0 0.0 0.00 0.00 0.00 83 1024.0
20260502054643 6 0 0.0 0.0 0.00 0.00 0.00 90 1024.0
20260502053638 5 0 0.0 0.0 0.00 0.00 0.00 96 1025.0
20260502052632 6 0 0.0 0.0 0.00 0.00 0.00 91 1025.0
20260502045615 5 0 0.0 0.0 0.00 0.00 0.00 95 1025.0
20260502044610 4 0 0.0 0.0 0.00 0.00 0.00 10 1025.0
20260502043604 4 0 0.0 0.0 0.00 0.00 0.00 99 1025.0
20260502042558 3 0 0.0 0.0 0.00 0.00 0.00 98 1025.0
20260502041553 3 0 0.0 0.0 0.00 0.00 0.00 99 1025.0
20260502040547 4 0 0.0 0.0 0.00 0.00 0.00 97 1024.0
20260502035541 4 0 0.0 0.0 0.00 0.00 0.00 98 1025.0
20260502033530 3 0 0.0 0.0 0.00 0.00 0.00 99 1024.0
20260502032525 3 0 0.0 0.0 0.00 0.00 0.00 97 1024.0
20260502031519 4 0 0.0 0.0 0.00 0.00 0.00 97 1024.0
20260502025508 4 0 0.0 0.0 0.00 0.00 0.00 98 1025.0
20260502024502 4 0 0.0 0.0 0.00 0.00 0.00 96 1025.0
20260502023457 5 0 0.0 0.0 0.00 0.00 0.00 93 1025.0
20260502021445 5 0 0.0 0.0 0.00 0.00 0.00 94 1025.0
20260502020440 5 0 0.0 0.0 0.00 0.00 0.00 97 1025.0
20260502015434 5 0 0.0 0.0 0.00 0.00 0.00 94 1025.0
20260502014429 3 0 0.0 0.0 0.00 0.00 0.00 10 1025.0
20260502013423 5 0 0.0 0.0 0.00 0.00 0.00 93 1025.0
20260502012417 5 0 0.0 0.0 0.00 0.00 0.00 91 1025.0
20260502010406 5 0 0.0 0.0 0.00 0.00 0.00 91 1025.0
20260502005400 5 0 0.0 0.0 0.00 0.00 0.00 90 1025.0
20260502004355 5 0 0.0 0.0 0.00 0.00 0.00 90 1025.0
20260502003349 6 0 0.0 0.0 0.00 0.00 0.00 87 1025.0
20260502002344 6 0 0.0 0.0 0.00 0.00 0.00 87 1025.0
20260502001338 6 0 0.0 0.0 0.00 0.00 0.00 88 1025.0
20260502000332 6 0 0.0 0.0 0.00 0.00 0.00 88 1025.0
20260501234321 6 0 0.0 0.0 0.00 0.00 0.00 86 1025.0
20260501231305 7 0 0.0 0.0 0.00 0.00 0.00 82 1025.0
20260501230259 7 0 0.0 0.0 0.00 0.00 0.00 81 1025.0
20260501225253 7 0 0.0 0.0 0.00 0.00 0.00 78 1025.0
20260501224248 7 0 0.0 0.0 0.00 0.00 0.00 79 1025.0
20260501222237 7 0 0.0 0.0 0.00 0.00 0.00 80 1025.0
20260501221231 8 0 0.0 0.0 0.00 0.00 0.00 74 1025.0
20260501215220 8 0 0.0 0.0 0.00 0.00 0.00 74 1025.0
20260501213209 8 0 0.0 0.0 0.00 0.00 0.00 73 1025.0
20260501210152 10 0 0.0 0.0 0.00 0.00 0.00 68 1025.0
20260501205146 10 0 0.0 0.0 0.00 0.00 0.00 67 1025.0
20260501204141 10 0 0.0 0.0 0.00 0.00 0.00 66 1025.0
20260501203135 10 0 0.0 0.0 0.00 0.00 0.00 66 1025.0
20260501201124 11 0 0.0 0.0 0.00 0.00 0.00 63 1025.0
20260501194107 12 0 0.0 0.0 0.00 0.00 0.00 54 1025.0
20260501193101 12 0 0.0 0.0 0.00 0.00 0.00 57 1025.0
20260501192056 12 0 0.0 0.0 0.00 0.00 0.00 53 1024.0
20260501191050 12 0 0.0 0.0 0.00 0.00 0.00 53 1024.0
20260501190045 13 0 0.0 0.0 0.00 0.00 0.00 52 1024.0
20260501185039 13 0 0.0 0.0 0.00 0.00 0.00 50 1024.0
20260501184033 14 0 0.0 0.0 0.00 0.00 0.00 45 1024.0
20260501183028 16 0 0.0 0.0 0.00 0.00 0.00 39 1024.0
20260501182022 16 0 0.0 0.0 0.00 0.00 0.00 37 1024.0
20260501180011 17 0 0.0 0.0 0.00 0.00 0.00 36 1024.0
20260501175006 17 0 0.0 0.0 0.00 0.00 0.00 35 1024.0
20260501174000 17 0 0.0 0.0 0.00 0.00 0.00 35 1024.0
20260501172954 17 0 0.0 0.0 0.00 0.00 0.00 35 1023.0
20260501171949 17 0 0.0 0.0 0.00 0.00 0.00 35 1023.0
20260501170943 17 0 0.0 0.0 0.00 0.00 0.00 35 1023.0
20260501165938 18 0 0.0 0.0 0.00 0.00 0.00 34 1023.0
20260501162921 18 0 0.0 0.0 0.00 0.00 0.00 32 1023.0
20260501161915 18 0 0.0 0.0 0.00 0.00 0.00 32 1023.0
20260501160910 18 0 0.0 0.0 0.00 0.00 0.00 32 1023.0
20260501155904 18 0 0.0 0.0 0.00 0.00 0.00 31 1023.0
20260501154858 19 0 0.0 0.0 0.00 0.00 0.00 31 1023.0
20260501153853 19 0 0.0 0.0 0.00 0.00 0.00 30 1023.0
20260501152847 19 0 0.0 0.0 0.00 0.00 0.00 30 1023.0
20260501150836 20 0 0.0 0.0 0.00 0.00 0.00 29 1023.0
20260501144825 20 0 0.0 0.0 0.00 0.00 0.00 29 1023.0
20260501143819 20 0 0.0 0.0 0.00 0.00 0.00 29 1023.0
20260501142814 20 0 0.0 0.0 0.00 0.00 0.00 28 1023.0
20260501141808 20 0 0.0 0.0 0.00 0.00 0.00 28 1023.0
20260501140802 21 0 0.0 0.0 0.00 0.00 0.00 27 1023.0
20260501135757 21 0 0.0 0.0 0.00 0.00 0.00 27 1023.0
20260501134751 21 0 0.0 0.0 0.00 0.00 0.00 26 1023.0
20260501133746 21 0 0.0 0.0 0.00 0.00 0.00 26 1023.0
20260501132740 21 0 0.0 0.0 0.00 0.00 0.00 25 1024.0